RH
91 92 81 68 65 73 82 91 97 101 102 103 101 99 94 87 85 81 77 74 69 63 58 52 49 47 45 41 33 31 35 42 46 47 44 40 40 40 41 40 41 43 47 52 56 56 51 47 46 43 42 42 48 55 56 53 50 50 53 58 59 58 56 57 60 63 64 64 64 64 64 65 69 72 73 72 70 64 54 48 47 52 54 49 39 27 20 15 12 11 12 13 19 31 35 30 25
72 80 88 86 75 64 61 65 75 86 91 93 91 85 76 72 74 71 68 65 62 61 58 54 51 49 49 46 40 36 38 40 44 45 44 42 40 38 38 38 38 39 40 43 48 51 49 45 42 40 39 40 46 51 51 51 51 52 55 58 58 53 49 51 57 63 64 63 63 62 62 65 70 72 69 64 59 52 44 43 47 49 43 32 23 17 13 12 12 12 13 18 29 36 33 28 24
59 61 69 79 83 80 75 70 70 75 79 78 73 67 65 68 70 67 64 60 56 55 55 54 53 52 51 50 47 43 41 41 43 44 44 42 39 37 35 33 32 33 34 37 41 45 45 42 38 37 38 39 42 44 45 47 51 53 58 61 61 58 52 49 51 54 56 57 56 56 61 65 66 61 55 52 48 43 39 39 38 34 26 18 14 12 12 13 13 15 19 26 35 37 32 26 23
46 48 51 57 63 70 76 78 78 78 77 75 70 67 68 69 68 65 62 57 52 49 48 50 51 51 50 50 49 46 44 43 43 44 44 42 39 36 33 31 29 30 31 35 39 40 40 37 35 35 36 38 38 38 40 45 51 56 62 64 66 63 54 47 45 45 46 48 49 53 58 57 51 45 42 40 38 35 30 27 23 19 15 13 12 12 14 15 17 20 25 30 36 38 31 25 25
33 35 37 41 44 48 53 58 62 64 67 69 68 67 66 63 61 58 55 51 46 43 41 43 45 46 46 46 45 44 43 42 41 41 40 40 38 35 32 30 29 29 30 32 35 36 36 35 35 35 37 37 37 37 40 46 53 59 62 64 65 60 50 43 40 38 39 40 43 47 46 41 35 31 29 28 26 23 19 17 15 13 12 12 13 15 18 20 23 25 27 32 39 37 29 26 28
24 25 26 28 29 32 34 37 41 43 46 49 50 51 51 51 48 46 44 40 37 35 35 36 37 38 39 39 39 39 38 38 37 36 36 35 34 31 29 28 28 28 28 29 31 33 36 38 40 40 39 38 39 41 44 49 53 58 60 61 59 50 43 39 35 33 32 33 35 34 31 27 24 21 19 17 16 15 14 13 12 12 13 14 17 22 26 27 26 26 29 34 39 34 27 28 31
21 21 22 22 22 22 22 24 26 28 30 31 32 33 33 33 33 32 31 29 27 27 27 28 30 31 31 32 32 32 32 32 31 31 30 29 28 27 25 25 25 25 25 25 28 33 38 43 45 42 39 39 41 46 50 53 56 57 57 54 48 41 37 35 31 28 26 26 26 23 21 19 16 15 14 13 13 12 12 13 13 14 17 21 26 31 31 27 25 25 29 33 35 30 27 31 34
18 19 20 21 21 21 20 20 20 20 20 20 21 21 21 21 21 21 21 21 20 20 21 21 22 23 24 25 25 25 26 25 25 25 25 24 23 22 21 21 20 20 20 22 25 31 36 40 40 38 38 40 44 49 54 55 54 52 49 45 39 35 32 29 26 23 22 20 19 17 15 14 13 12 12 12 12 12 13 14 15 20 27 30 33 35 30 26 25 25 28 32 32 26 27 34 37
13 14 15 16 18 19 20 20 20 20 20 19 18 17 16 16 16 16 16 16 16 16 16 16 17 17 18 18 18 19 19 19 20 20 20 20 19 18 17 16 15 15 17 18 20 23 26 28 30 32 36 40 44 48 50 49 45 41 38 34 30 26 23 22 20 18 17 16 15 14 13 13 13 13 13 13 13 14 16 16 20 30 34 32 35 36 31 28 24 25 30 32 27 23 28 37 40
12 12 12 12 13 14 15 16 17 19 20 20 19 18 17 16 16 15 15 14 14 14 14 14 14 14 14 14 14 15 15 16 16 17 17 17 16 15 14 14 13 14 14 15 15 15 16 18 21 25 29 32 35 37 36 34 31 28 26 23 20 18 17 16 16 15 15 14 14 14 14 14 14 14 14 15 15 16 18 20 28 36 36 33 33 34 32 27 23 25 30 29 23 23 32 41 43
13 13 13 12 12 12 12 12 12 14 15 16 17 17 17 17 18 18 18 17 16 15 15 14 13 13 13 13 13 14 15 15 15 15 16 16 16 15 15 15 14 14 14 14 14 13 13 14 16 18 21 23 24 24 23 21 20 18 17 16 15 15 15 15 15 15 15 15 15 15 15 16 16 16 16 16 18 19 22 27 34 36 36 34 30 31 30 23 21 25 27 26 25 27 36 45 43
16 15 15 14 14 13 13 13 12 12 12 12 12 13 13 14 15 17 18 18 18 19 18 17 16 15 15 14 15 16 16 16 16 16 17 17 17 17 17 17 16 16 15 15 15 14 14 14 14 15 16 17 17 16 16 15 15 15 15 15 15 16 16 16 16 16 17 17 17 17 17 17 17 17 18 19 22 23 27 33 37 35 33 32 28 29 26 20 21 22 23 27 31 33 40 48 44
19 19 18 17 16 16 15 15 14 13 13 12 12 11 11 11 11 12 13 14 15 16 17 18 18 18 19 19 20 20 20 19 19 19 20 20 20 20 20 19 19 18 17 17 16 16 16 15 16 16 16 16 16 16 16 16 16 16 17 17 17 18 18 18 18 18 19 19 19 19 19 19 18 20 21 24 26 26 32 38 38 33 29 30 30 29 24 22 23 21 24 32 36 39 44 49 46
20 20 21 21 20 20 19 18 16 15 14 13 13 12 11 11 11 11 11 11 11 11 12 13 14 15 17 20 22 23 24 24 24 24 24 24 24 23 23 22 21 20 19 19 18 18 18 18 18 18 18 18 18 18 18 18 18 19 19 20 20 20 20 20 20 21 21 21 21 20 21 21 22 23 23 25 26 27 37 44 37 26 26 31 32 30 27 25 24 23 29 40 43 45 49 52 50
20 21 21 22 23 23 22 20 18 16 15 14 13 12 12 12 12 12 12 11 11 11 11 11 11 12 12 14 17 20 23 26 28 29 29 29 28 27 26 25 24 23 22 21 21 21 20 20 20 21 20 20 20 20 21 21 21 21 22 22 23 22 22 23 22 23 23 23 22 22 24 26 30 26 21 23 26 33 45 50 35 22 29 35 33 31 30 28 26 27 37 48 49 50 54 54 51
21 22 23 23 24 24 23 22 19 18 16 15 15 15 15 14 13 13 13 13 12 12 12 12 12 12 12 12 12 14 17 20 23 28 32 33 32 31 29 28 27 26 26 26 25 24 24 23 23 22 22 22 22 22 22 23 24 24 24 24 24 24 24 24 24 24 23 24 24 26 26 27 29 22 20 27 33 44 49 43 27 25 38 38 35 34 34 31 25 32 45 54 54 56 60 59 52
23 24 24 25 24 24 23 22 20 19 18 18 18 17 17 17 16 16 16 15 15 14 14 14 14 14 14 13 13 13 13 13 16 20 25 29 32 32 31 30 30 29 29 28 28 28 27 26 26 25 25 25 25 25 25 25 25 24 25 25 24 23 24 24 23 25 24 24 26 26 25 23 22 20 27 37 45 50 41 27 22 38 50 40 38 38 36 31 25 37 52 57 60 64 68 64 56
27 27 26 25 24 23 22 21 20 19 20 20 20 19 19 19 19 19 19 18 17 17 16 16 15 15 15 15 15 14 14 14 14 14 16 18 21 24 27 29 30 31 31 30 30 29 29 28 27 27 27 26 25 25 25 24 24 23 23 21 21 22 22 23 24 26 25 24 24 23 22 20 21 25 36 47 49 42 28 18 23 43 49 40 40 37 32 29 30 43 53 61 72 82 84 76 68
29 29 27 25 24 23 21 21 20 19 21 21 22 21 21 20 20 20 20 20 19 19 19 18 17 17 16 16 16 15 16 16 15 15 14 13 13 15 17 21 25 28 30 31 30 30 29 28 28 28 27 26 25 24 22 21 20 18 18 18 20 22 22 24 25 25 24 23 23 22 21 22 26 29 35 40 37 26 20 21 23 28 33 37 36 28 27 30 38 51 57 68 86 100 101 93 85
30 28 27 26 25 25 23 23 22 21 21 21 22 21 22 23 23 22 22 22 21 21 21 19 19 18 17 16 16 16 16 16 16 15 14 13 13 12 12 15 17 20 23 24 25 27 26 26 26 24 22 20 19 19 20 20 19 17 19 21 21 24 25 27 27 25 23 23 23 23 22 25 28 25 25 26 22 18 19 22 21 18 23 31 27 21 25 32 44 58 66 73 88 103 105 101 93
30 30 30 29 29 29 28 27 25 23 23 22 22 23 25 26 27 27 26 25 24 23 22 20 19 18 17 16 16 15 15 15 15 15 14 14 13 12 13 13 14 15 16 17 18 18 19 20 18 18 28 36 40 44 47 46 39 33 27 26 30 33 33 33 30 27 26 27 25 22 21 22 21 19 19 18 17 18 19 20 19 18 21 23 19 19 23 30 45 60 71 74 80 92 93 90 84
35 34 33 34 34 34 32 30 28 26 25 26 27 28 28 29 30 31 29 28 26 25 23 21 19 17 17 16 15 15 14 15 14 15 13 13 12 12 12 14 17 17 16 16 16 17 18 20 25 48 73 79 82 84 87 86 77 67 52 45 46 42 39 35 31 28 27 25 21 20 20 19 19 18 18 17 17 18 18 18 18 17 18 18 16 18 23 32 46 59 72 75 75 76 73 69 65
41 38 37 37 37 37 34 32 31 30 30 31 32 32 32 32 33 32 30 29 27 25 23 21 19 18 17 16 15 14 14 14 14 14 13 13 12 13 15 18 20 19 20 19 21 23 24 44 69 91 103 96 99 102 99 101 96 85 69 55 51 47 42 34 25 22 20 19 18 18 19 18 19 18 17 17 17 17 18 17 17 17 16 16 17 21 30 40 52 66 78 80 74 66 60 56 51
43 41 39 39 39 39 37 36 35 34 34 34 35 35 35 34 33 32 31 29 27 25 23 22 20 19 17 16 16 14 15 14 14 13 12 13 13 17 20 23 24 22 23 23 27 25 26 70 99 94 100 97 96 101 100 102 99 91 79 67 63 59 44 27 19 16 15 17 17 17 18 18 18 17 17 17 17 17 17 17 16 17 18 21 26 32 41 48 59 71 79 80 72 61 54 48 44
44 43 42 42 42 41 38 38 37 36 35 34 35 35 34 34 33 31 30 28 26 24 23 21 20 19 18 17 16 15 15 14 14 13 13 15 20 25 25 25 26 23 27 26 27 27 24 57 65 50 80 103 101 102 99 100 101 94 85 72 60 49 33 20 17 15 15 16 16 17 17 17 17 17 17 16 17 18 17 18 19 22 27 32 35 38 41 48 56 57 58 61 58 52 47 43 42
44 42 41 40 39 37 35 35 34 33 33 32 32 32 32 31 30 29 27 26 24 23 22 21 20 19 18 17 17 17 16 15 15 16 17 23 28 30 28 29 29 27 29 26 27 29 21 30 30 25 52 79 90 87 74 76 75 63 52 42 34 27 22 18 16 15 15 16 16 17 16 17 17 16 17 17 17 18 19 24 29 34 38 39 36 35 40 45 45 41 39 42 43 43 44 46 51
39 37 35 34 33 31 30 29 29 29 28 28 28 28 28 27 27 26 25 24 23 22 21 21 20 19 20 19 20 18 17 19 20 23 25 31 35 34 32 31 30 29 26 38 60 57 37 26 20 23 31 39 50 46 37 40 37 28 23 21 20 19 18 16 15 16 16 16 16 17 17 16 16 17 17 17 19 24 32 38 41 43 43 40 35 35 40 41 38 36 36 36 38 42 52 62 70
32 30 29 27 27 26 25 24 24 24 24 24 24 24 24 24 24 24 23 23 22 22 21 22 23 22 23 23 23 22 22 27 29 31 34 36 37 36 47 56 58 62 59 72 98 92 76 61 38 26 23 20 22 20 20 22 20 19 18 18 20 19 17 17 16 16 16 17 17 17 17 17 18 18 18 22 32 42 49 51 50 50 46 40 35 35 37 36 36 38 38 39 42 53 73 87 91
26 25 25 24 23 23 22 22 21 21 22 22 22 22 22 22 23 22 22 23 22 24 25 25 27 27 30 30 29 28 30 35 35 36 38 38 39 43 67 89 93 96 93 96 104 101 100 96 82 69 55 42 34 29 26 24 25 28 29 32 33 25 19 17 17 17 18 18 17 18 19 19 19 21 29 42 52 60 63 61 59 56 48 39 35 33 32 33 36 38 41 44 53 71 88 95 96
25 25 25 24 24 25 24 23 23 23 23 21 22 22 23 23 22 22 24 27 28 30 31 32 34 36 37 37 36 37 38 38 39 41 40 39 46 60 79 95 101 99 98 101 102 101 99 96 100 101 94 86 78 72 68 64 66 68 67 60 45 29 21 20 19 19 19 18 19 21 22 23 28 39 54 62 69 76 75 68 64 57 48 41 37 32 28 27 30 35 39 44 54 67 73 75 78
28 28 29 29 30 30 29 29 28 29 27 24 24 26 30 29 24 27 31 37 42 42 41 41 43 44 44 44 43 43 41 39 44 48 51 57 63 78 92 96 103 101 96 101 99 98 99 96 99 101 102 100 95 96 97 95 95 89 81 69 54 37 25 22 21 20 20 21 24 26 30 38 51 64 68 69 78 86 79 68 62 56 49 44 39 34 28 24 24 30 37 41 45 50 52 54 57
32 35 36 38 40 40 38 39 42 42 37 33 33 37 45 44 36 40 45 52 58 56 53 51 50 51 49 50 48 47 45 44 50 49 53 64 65 79 95 97 103 101 96 101 99 98 101 100 99 101 103 100 96 95 93 92 90 83 77 72 65 49 32 25 22 21 23 29 33 37 48 61 70 71 67 72 83 86 76 66 61 56 52 46 40 34 28 23 21 24 31 38 40 40 43 45 48
38 42 44 46 50 54 54 56 60 59 50 44 43 46 60 68 60 58 60 64 69 66 62 58 55 54 52 53 52 50 49 50 53 49 47 51 51 69 89 94 102 102 97 100 99 99 101 100 101 102 101 99 99 94 88 86 85 84 83 76 69 54 37 26 22 27 36 45 49 53 63 71 73 68 67 75 83 83 74 63 58 56 53 47 41 36 29 24 21 21 24 29 35 39 42 44 46
43 47 49 51 55 61 67 69 70 68 59 53 51 53 68 85 83 73 68 70 75 73 68 63 58 56 53 53 53 49 50 51 50 48 47 49 56 77 95 98 100 103 102 100 99 100 100 99 101 102 100 99 101 98 94 91 86 86 84 72 65 55 42 37 39 48 58 61 60 61 65 69 69 67 69 76 82 82 71 60 57 55 51 48 44 38 32 27 25 24 23 22 28 37 40 39 37
47 49 52 55 57 61 67 68 66 66 63 58 57 58 68 84 87 79 74 73 74 73 69 65 60 57 54 52 50 47 47 48 47 44 43 46 52 67 91 103 99 99 103 100 98 100 100 99 100 102 101 98 100 101 100 97 92 91 90 80 69 61 55 54 57 63 66 65 62 60 62 66 69 71 74 78 82 79 67 58 56 52 48 47 45 40 34 31 29 28 26 24 23 28 32 30 28
50 50 52 55 58 60 62 60 58 59 60 59 57 58 63 75 81 77 77 74 70 68 65 63 60 56 53 50 47 45 44 43 42 42 39 40 41 43 67 93 99 100 99 97 100 102 101 100 100 102 100 99 100 99 98 101 99 97 97 92 79 67 61 56 57 63 65 63 60 60 63 66 71 78 83 81 82 78 66 59 55 50 44 42 43 41 37 34 31 29 27 27 25 24 25 25 24
49 49 50 52 55 57 56 55 53 52 54 57 56 54 58 69 75 71 70 69 66 64 61 59 57 53 50 46 44 42 41 39 38 38 36 35 36 34 41 57 78 98 101 98 101 102 101 101 100 101 100 99 101 99 98 101 101 100 101 98 90 80 71 64 62 66 68 67 64 63 65 66 70 79 82 81 84 80 71 64 57 49 40 39 42 41 40 37 34 32 27 27 28 26 26 25 25
45 46 47 49 52 52 50 49 49 46 48 53 54 54 57 65 70 63 59 59 60 60 57 54 51 47 44 41 40 38 36 35 34 34 34 32 32 32 31 32 43 70 92 101 103 102 100 101 100 100 101 100 100 99 99 100 100 100 101 101 98 95 89 86 83 79 76 72 70 69 68 67 69 76 78 81 88 85 78 70 57 46 40 41 43 42 43 40 35 31 27 27 29 28 28 27 28
39 39 42 45 47 47 45 44 43 41 43 48 50 51 56 62 63 57 51 50 52 54 52 48 44 41 38 36 35 33 31 30 30 29 29 29 29 28 29 28 26 37 62 86 100 103 100 99 102 100 100 100 100 100 99 99 101 100 101 101 100 100 98 97 97 94 90 87 83 79 73 71 73 77 78 83 90 89 83 75 60 48 43 43 46 45 43 38 32 29 29 31 31 30 30 29 30
30 31 34 37 39 40 40 39 37 36 39 46 47 47 52 57 57 53 48 46 47 49 46 41 39 35 33 31 29 27 26 25 25 26 25 25 26 25 25 26 24 28 48 71 88 102 103 99 100 100 99 100 99 100 100 99 100 100 101 101 101 101 99 97 97 98 99 100 99 95 89 84 84 85 84 84 89 90 85 78 68 56 46 44 47 46 42 36 31 30 32 34 35 33 32 32 33
28 27 27 29 30 31 33 34 32 32 36 43 45 44 48 52 51 49 45 43 43 43 40 36 33 31 28 26 24 24 23 22 22 22 22 22 21 22 22 22 22 24 46 73 87 97 101 100 101 100 99 101 101 100 100 100 100 101 101 101 101 101 99 99 99 98 99 100 101 102 101 98 97 97 93 87 87 88 85 78 72 63 53 48 49 47 43 39 34 32 34 35 37 36 34 35 35
29 28 27 25 25 25 27 27 27 29 32 38 40 40 45 47 46 45 41 39 38 35 33 30 28 26 24 22 22 23 21 21 21 21 21 21 20 20 19 21 21 20 36 73 97 93 87 93 100 101 99 99 102 101 99 100 100 100 101 101 101 101 100 100 100 99 100 100 100 101 99 97 98 98 96 92 88 86 85 80 75 71 65 59 55 51 46 42 37 35 36 36 37 37 36 38 36
29 28 27 25 26 25 24 24 24 26 27 30 34 36 39 41 40 40 37 33 32 29 27 26 24 23 22 22 22 23 23 22 22 21 20 19 19 19 18 18 19 21 24 53 94 99 86 92 99 100 101 101 101 101 100 101 100 100 101 101 101 101 100 100 100 100 99 98 97 96 91 87 86 83 84 90 90 87 87 84 79 77 76 69 61 55 49 44 40 39 40 39 37 37 37 38 36
29 28 27 27 28 26 25 23 22 24 24 24 28 30 33 35 35 33 31 29 27 25 24 23 22 21 22 24 25 25 25 23 22 22 21 21 21 19 19 19 18 23 20 32 81 107 97 99 103 99 99 100 100 100 100 101 100 100 101 100 100 100 100 99 97 95 93 92 91 89 85 82 80 74 76 88 94 93 90 85 79 78 76 70 61 55 50 46 45 45 44 42 39 38 37 37 35
29 28 28 28 28 27 26 24 23 24 24 23 24 25 27 29 29 27 26 25 23 22 22 22 22 23 26 28 30 29 26 25 25 24 23 22 22 20 20 22 20 23 23 27 66 103 102 97 100 101 101 101 101 100 100 101 101 101 101 100 100 100 100 99 96 91 86 83 81 81 81 81 80 77 77 86 93 94 91 83 78 75 71 65 59 55 53 51 52 51 48 45 43 40 38 37 35
30 29 29 29 27 27 26 25 25 24 25 26 24 22 24 25 25 23 22 22 21 22 22 25 27 29 31 32 32 31 30 29 28 27 26 24 24 25 25 25 24 24 25 24 41 79 103 104 100 99 99 100 100 100 100 101 100 100 100 100 101 101 100 97 94 90 82 76 73 76 80 82 82 83 81 82 85 88 87 83 79 75 72 66 62 60 59 58 58 55 49 45 45 44 41 38 36
31 31 30 29 28 28 27 28 27 26 28 28 23 21 22 23 24 22 20 21 22 23 25 29 33 33 33 33 33 32 31 31 30 29 27 25 26 28 27 27 27 27 29 27 27 47 77 91 97 102 102 100 100 100 100 101 101 101 100 100 100 100 100 96 87 79 72 68 66 67 71 74 76 77 76 76 81 85 86 86 84 82 79 75 71 68 64 62 61 57 50 45 46 46 45 41 37
34 33 31 30 30 29 30 30 28 28 30 28 24 22 21 24 29 26 21 22 25 26 30 32 34 35 33 32 32 31 30 30 30 28 27 28 29 29 29 28 28 27 29 31 29 30 39 49 62 78 91 100 101 99 99 100 101 101 100 99 99 100 100 97 90 83 76 73 69 63 61 60 60 64 66 68 73 81 87 90 90 90 85 80 76 70 66 64 62 57 52 48 47 47 47 45 40
36 34 33 32 32 32 32 31 30 31 31 28 25 22 22 27 34 32 25 25 28 30 32 33 34 33 31 31 30 28 29 28 26 26 25 24 22 23 25 25 28 29 27 29 31 30 30 31 34 40 56 83 101 103 102 102 102 102 100 100 101 101 100 99 99 96 95 93 87 79 71 67 66 70 73 74 76 84 90 93 94 94 88 80 75 70 67 65 62 58 55 51 50 49 48 47 45
37 35 34 35 36 37 35 33 33 33 32 28 25 24 27 33 40 38 31 28 30 32 32 32 32 31 29 29 27 25 26 24 23 23 21 28 44 49 38 24 21 26 27 28 29 30 31 31 33 32 34 53 78 89 89 87 91 95 96 97 99 100 98 99 101 101 103 104 102 99 94 89 89 89 89 90 89 91 94 96 97 95 88 79 73 70 69 67 63 60 58 55 52 50 50 50 48
40 39 39 41 41 39 35 34 33 33 31 28 29 31 34 39 43 40 34 31 31 31 32 30 30 30 28 26 25 24 23 20 23 22 23 54 90 94 79 58 34 22 25 29 27 30 32 30 31 35 35 39 48 54 54 55 62 71 77 82 90 99 102 99 94 95 99 99 98 97 93 93 99 101 100 99 96 97 99 98 96 92 85 77 72 71 70 67 65 63 61 60 56 53 53 54 52
43 41 42 42 40 37 36 34 33 34 33 34 37 38 39 42 43 39 35 32 30 30 30 29 29 27 25 25 23 23 22 22 24 22 33 75 102 95 95 97 74 40 24 28 31 29 30 33 32 32 32 34 38 45 54 65 76 82 86 92 96 100 105 103 94 88 85 83 82 80 79 86 98 103 103 102 100 100 99 96 92 86 80 75 72 72 71 70 69 68 65 63 61 58 57 57 58
45 45 45 42 38 38 37 35 36 39 40 42 43 41 42 42 40 38 34 30 30 30 28 28 28 25 24 25 22 23 24 21 29 42 59 89 103 95 92 100 102 77 38 24 30 29 28 30 30 31 34 43 60 76 84 94 102 94 87 94 98 97 102 104 101 96 87 77 73 70 70 77 88 93 98 100 100 97 95 92 88 82 77 74 74 75 76 77 75 73 69 67 67 65 64 64 66
49 49 47 42 39 40 39 38 44 49 48 46 43 41 41 41 38 36 32 30 30 28 28 27 25 24 25 23 23 26 21 26 56 81 87 93 100 102 98 94 104 102 70 45 40 38 37 30 24 34 53 71 91 101 99 103 107 90 74 80 87 86 88 85 85 94 92 80 72 69 67 71 76 81 86 92 92 90 89 88 85 80 75 74 79 84 86 87 85 80 76 74 74 74 76 77 79
51 49 46 43 41 41 42 45 51 54 51 46 43 41 40 39 37 34 31 30 29 27 28 26 24 25 24 23 27 24 22 49 88 99 95 100 101 99 100 98 100 102 96 87 73 56 47 43 38 41 54 77 96 101 98 102 105 97 90 93 94 90 90 84 79 84 82 73 68 65 67 77 84 85 85 85 85 84 85 86 85 81 77 79 85 89 91 95 95 90 88 88 89 91 92 93 94
50 49 47 44 42 42 46 51 52 52 50 46 44 41 38 38 35 32 30 28 27 27 26 24 25 25 23 26 25 21 39 80 101 97 98 105 101 96 98 100 101 101 100 102 95 73 51 44 49 51 57 80 101 103 100 100 101 101 100 100 100 99 100 99 95 90 83 78 75 71 76 88 92 92 90 86 85 87 89 92 94 92 89 87 88 89 95 102 102 100 100 100 98 94 91 90 93
51 49 48 47 47 49 52 53 52 51 48 46 46 42 38 36 33 31 29 27 27 26 24 25 25 23 25 25 20 32 71 100 99 98 104 99 93 98 100 99 102 102 99 100 102 92 72 57 57 58 60 75 91 98 103 104 100 100 100 99 101 101 100 101 101 98 94 91 88 87 91 95 96 95 94 92 92 94 97 100 103 102 98 94 93 95 98 99 96 92 90 85 79 74 71 72 74
52 50 48 51 57 62 62 58 53 50 47 48 47 43 38 35 32 30 27 26 26 24 24 25 23 24 25 19 27 62 97 103 97 100 103 96 95 99 99 98 99 100 100 101 99 99 96 92 86 73 57 57 67 78 94 104 101 97 100 100 101 102 101 101 101 101 100 95 93 92 90 94 100 100 98 100 101 101 100 98 96 94 92 92 92 91 87 81 76 72 68 65 62 61 60 60 57
Wind_Speed
70 70 71 73 74 74 73 74 74 75 76 77 78 78 76 74 73 72 71 72 73 74 75 73 72 71 70 69 67 66 66 67 67 66 65 64 63 62 62 62 63 64 64 66 67 67 66 66 66 66 66 67 67 68 67 66 65 65 66 68 68 69 70 71 72 72 72 73 73 73 72 71 71 71 70 70 69 69 68 68 68 69 69 70 69 68 66 64 62 60 58 56 53 49 47 48 46
72 72 71 72 73 75 75 76 75 76 78 79 81 80 78 77 75 74 73 73 73 75 75 74 72 71 71 70 68 67 67 67 67 67 67 66 65 65 64 64 65 66 67 68 69 69 68 68 68 67 67 67 68 68 68 67 66 66 67 69 69 70 71 72 73 73 73 73 74 73 73 72 71 71 70 70 69 68 67 67 68 68 69 68 66 65 63 61 60 59 57 53 49 47 48 46 44
73 73 73 73 73 74 75 76 77 78 80 82 83 81 80 79 78 77 76 75 74 75 74 74 72 71 71 71 70 69 69 68 68 68 68 68 68 67 67 67 67 68 68 69 70 70 70 69 69 68 68 68 68 68 68 68 68 67 69 70 70 71 72 73 74 73 73 74 74 74 73 72 72 71 70 69 68 67 67 67 67 67 66 65 63 62 60 60 59 57 53 49 47 47 46 43 42
73 73 73 74 74 75 75 76 78 79 82 83 84 83 82 82 81 79 78 77 76 75 75 74 73 72 72 72 71 71 71 70 70 70 70 70 70 69 69 69 69 69 69 70 70 70 70 69 69 69 69 69 68 68 68 69 69 69 70 70 71 72 73 74 74 73 73 73 73 73 73 72 71 70 69 68 67 67 66 66 66 64 63 62 61 60 59 59 56 53 49 47 46 46 43 41 39
73 73 74 74 74 75 75 76 78 80 82 83 83 83 82 82 81 80 79 78 76 76 76 75 74 73 73 73 73 73 73 72 72 72 71 71 71 71 70 70 70 70 71 71 72 71 70 70 70 70 70 69 69 68 68 69 70 70 70 71 71 72 73 73 73 73 73 73 73 72 72 71 70 70 68 67 67 66 65 65 63 61 60 60 60 59 57 54 51 49 47 46 45 43 42 40 37
73 73 74 74 74 75 76 76 78 80 81 82 82 81 80 79 79 78 77 76 75 75 75 75 75 74 74 74 74 74 74 74 73 73 73 72 71 71 71 71 71 71 72 72 73 72 71 71 71 71 70 70 69 68 68 69 70 71 71 71 72 73 73 73 73 72 72 72 72 71 71 70 69 68 67 66 65 64 63 62 61 59 58 59 58 54 51 49 48 47 46 45 42 41 41 39 34
72 73 74 74 74 75 76 77 79 80 81 81 81 80 79 77 76 76 76 75 75 75 75 75 75 75 75 75 75 75 75 74 74 74 73 72 72 71 71 71 72 72 73 73 73 73 72 72 72 71 70 69 69 69 69 69 70 71 71 72 73 73 73 72 72 72 71 71 70 70 69 69 68 67 66 65 63 62 61 60 59 58 56 55 52 48 46 46 46 46 45 43 41 40 40 37 31
71 72 73 73 74 75 76 77 79 81 81 81 81 80 78 77 76 76 76 76 75 75 76 76 77 77 76 76 76 75 75 74 74 73 73 72 71 71 71 71 72 72 73 73 73 72 72 72 72 71 70 69 68 68 69 69 70 71 71 72 73 72 72 72 71 71 70 70 69 68 68 67 66 65 64 63 61 59 59 58 57 55 52 48 46 45 45 46 46 46 45 42 40 39 38 34 29
69 70 71 72 72 74 75 77 79 80 81 81 82 80 78 77 76 77 77 77 76 76 77 77 78 77 77 77 76 75 75 74 73 73 72 71 71 71 71 70 71 71 71 71 71 71 71 71 70 69 68 68 68 68 69 69 70 70 71 71 71 71 71 70 70 70 69 68 68 67 66 66 65 64 63 62 60 58 57 56 54 51 47 44 45 45 45 47 47 46 45 42 40 37 35 31 27
66 67 68 69 70 72 74 76 78 79 80 81 81 79 78 77 77 78 78 78 78 77 78 78 78 78 77 77 76 75 74 74 73 72 71 71 70 70 70 70 70 70 70 70 69 68 68 68 67 67 67 67 67 68 69 69 69 69 69 69 69 69 69 69 69 68 68 67 66 66 65 65 64 63 62 61 59 57 55 53 50 47 45 45 46 45 46 47 47 46 44 42 39 36 32 28 26
65 66 66 67 68 70 72 75 76 77 79 79 79 78 77 76 77 78 79 79 78 78 79 79 78 78 77 77 76 75 74 74 73 72 71 71 70 70 70 70 71 71 70 70 69 68 67 66 66 66 66 66 67 67 67 68 68 68 68 67 67 67 68 68 68 67 67 66 66 65 65 64 64 63 61 60 58 55 52 49 47 46 47 47 46 45 46 46 46 45 43 41 38 35 31 26 24
65 65 66 67 68 69 71 73 74 75 76 76 76 76 75 75 75 77 78 78 78 78 79 79 79 78 78 77 76 76 75 74 74 73 72 72 71 71 71 72 72 71 71 70 69 68 66 66 65 65 66 66 67 66 66 67 67 67 67 67 67 67 67 67 67 67 66 66 65 65 65 64 63 62 60 58 55 52 49 47 46 47 48 47 46 45 45 45 44 43 42 40 37 34 30 26 23
66 66 66 67 68 70 72 74 74 74 74 73 73 73 72 72 73 74 75 76 77 77 78 78 79 78 78 78 77 77 76 76 75 74 74 73 72 72 73 73 73 72 71 71 70 68 67 66 66 66 66 66 66 66 67 67 67 67 67 68 68 68 68 68 67 67 66 65 65 65 64 63 62 60 58 55 52 49 48 46 46 47 47 46 44 43 43 43 42 42 42 39 35 33 31 26 22
67 67 67 68 69 71 73 75 75 74 73 73 72 72 71 71 71 72 73 74 74 75 75 76 76 76 76 77 77 77 77 77 76 75 75 74 74 74 74 74 74 73 72 71 70 69 68 67 67 67 67 67 67 68 68 68 68 68 68 68 68 68 68 67 67 66 65 64 64 64 63 61 59 57 54 53 51 49 47 46 47 46 45 43 42 42 42 41 41 41 41 37 34 33 30 27 24
68 68 69 69 71 73 75 77 76 74 74 74 73 72 71 71 70 71 71 71 71 72 72 72 73 73 74 74 75 76 76 76 76 76 76 76 76 75 75 75 74 74 73 72 71 70 69 68 68 68 68 69 69 69 69 69 69 69 69 69 69 69 68 67 66 65 64 63 63 62 60 57 56 54 52 51 49 47 46 46 46 45 43 41 41 40 40 40 41 40 38 36 34 33 30 27 25
70 70 70 71 72 75 77 78 77 75 74 75 74 73 72 71 71 71 71 71 70 70 70 70 70 70 71 71 72 73 74 75 76 77 77 77 77 77 76 76 75 75 74 73 72 71 71 70 70 70 70 70 70 70 70 70 70 70 70 70 69 69 68 67 65 64 63 62 61 59 57 55 54 53 51 48 46 45 45 45 45 44 41 40 40 39 39 40 40 38 36 35 34 32 30 28 26
72 72 72 73 74 77 78 78 76 75 75 75 74 73 73 72 71 71 72 71 71 70 70 70 69 69 69 69 70 70 71 72 74 76 77 78 78 78 77 77 76 75 74 74 73 72 72 72 72 71 71 71 71 71 71 71 71 71 71 70 70 69 67 65 63 62 60 59 58 56 54 53 52 51 47 45 44 44 45 44 43 42 40 40 39 39 39 40 39 37 35 35 34 33 31 29 27
73 72 73 74 76 78 78 78 76 75 74 74 74 73 73 72 72 71 72 71 71 71 71 70 69 69 69 69 69 68 69 69 72 74 76 77 77 77 77 76 76 76 75 74 74 74 74 73 73 72 72 72 72 72 72 72 71 71 70 69 68 66 64 61 60 59 57 55 54 52 50 49 48 47 44 43 43 44 44 43 41 41 41 40 39 39 39 39 37 36 35 35 35 33 31 30 29
73 73 74 76 77 78 78 77 77 75 75 75 74 73 73 73 72 72 72 72 71 71 71 70 69 69 69 69 69 68 69 69 71 72 73 74 74 74 75 75 75 75 74 74 74 74 74 74 74 73 73 73 72 71 71 70 69 68 67 65 63 61 58 55 54 54 52 50 48 47 46 46 45 43 43 43 43 43 43 42 41 40 41 40 40 40 39 37 36 35 35 35 35 34 33 32 32
74 74 75 77 78 78 77 77 77 75 75 75 74 74 74 73 73 72 72 72 71 71 71 70 69 69 68 68 68 68 69 70 71 71 71 71 70 71 72 72 73 72 72 72 72 73 73 73 73 72 71 70 68 66 64 63 62 62 61 59 57 54 52 50 49 48 46 44 43 42 42 43 42 41 42 42 43 43 42 41 41 40 40 40 40 39 37 35 34 33 34 34 34 35 35 35 35
75 76 76 77 77 78 78 78 78 76 76 76 75 74 74 74 73 73 73 72 72 71 71 70 70 69 68 68 68 69 69 70 70 70 70 69 67 67 68 69 69 69 68 68 68 69 70 69 68 66 62 59 56 55 54 55 57 57 56 54 51 49 47 44 42 41 41 40 40 39 40 41 40 40 41 42 42 42 41 41 41 40 40 39 39 38 37 35 33 32 32 33 34 35 36 37 36
76 77 77 77 78 78 78 78 78 77 76 76 75 75 74 74 73 73 73 73 72 71 71 71 70 70 69 68 69 69 69 70 70 69 68 67 66 65 65 64 64 64 64 63 64 64 63 61 58 53 48 46 45 45 46 48 50 50 50 49 46 42 39 38 39 39 40 40 39 39 39 40 39 39 40 41 41 41 41 41 41 40 39 39 38 37 36 35 33 32 32 33 34 35 36 37 37
77 78 78 78 78 79 79 79 78 77 76 76 75 74 74 73 73 73 73 72 72 71 71 71 70 70 69 69 69 69 69 69 68 67 65 64 63 61 60 59 59 59 58 58 58 57 55 50 46 42 40 40 39 38 38 39 40 40 40 39 37 36 38 40 41 41 41 40 39 39 39 39 39 39 40 40 40 41 41 41 40 40 39 37 36 35 34 33 33 33 33 33 34 35 36 37 37
78 78 78 78 79 79 78 78 77 76 76 75 74 74 73 72 72 72 72 72 71 70 70 70 69 69 68 68 67 67 67 66 65 64 62 60 58 56 54 54 54 54 53 53 53 53 50 45 42 42 42 42 40 38 38 38 36 33 32 33 37 41 43 43 42 42 41 40 40 39 39 39 38 39 39 40 40 40 40 40 39 38 36 34 32 31 30 30 32 32 32 32 33 34 36 36 35
78 78 77 77 78 78 77 77 77 76 75 74 73 73 72 70 71 71 71 70 70 69 69 68 68 67 66 66 66 66 65 64 62 60 57 54 51 50 50 50 50 49 48 48 49 50 47 45 47 48 46 45 46 46 47 46 41 38 39 43 46 47 44 42 41 41 40 40 39 39 38 38 38 39 39 39 39 39 39 38 37 35 32 29 27 26 27 29 31 31 30 30 31 32 33 32 30
77 77 76 77 77 77 77 77 77 76 75 74 73 73 71 70 70 71 70 69 68 68 67 66 66 65 64 64 64 63 62 59 56 54 51 47 46 46 46 45 44 43 44 46 48 47 45 45 48 49 48 50 52 54 53 50 48 48 50 50 49 46 43 41 40 39 39 39 38 38 38 38 38 38 38 38 38 38 37 35 32 29 27 25 25 26 28 29 29 28 26 26 27 28 28 26 23
77 76 77 77 77 77 77 77 77 75 74 74 73 72 70 69 69 69 69 67 67 66 65 64 63 63 62 62 62 61 57 53 49 47 44 41 41 41 40 39 39 41 43 44 43 44 45 46 48 48 49 52 54 56 55 53 53 53 52 51 49 46 43 41 39 38 38 37 37 38 37 37 37 36 36 36 35 34 32 29 27 25 24 24 25 26 26 26 26 24 23 23 24 23 22 20 18
76 76 76 76 75 76 76 76 75 73 73 72 71 70 68 67 67 67 66 65 64 63 62 61 60 60 60 60 59 56 51 46 43 41 38 37 37 35 34 33 32 36 39 40 40 41 42 45 49 51 52 53 54 55 55 55 54 54 53 51 48 45 42 39 38 37 36 37 37 36 36 35 35 35 34 32 30 28 26 25 24 23 23 23 24 24 23 22 22 21 20 19 19 18 16 15 15
74 74 73 73 72 72 72 72 71 70 70 68 67 66 64 64 64 64 63 62 61 59 59 58 58 58 57 57 55 51 45 41 38 35 34 34 34 32 30 28 27 29 31 34 38 35 34 38 41 45 50 52 53 54 54 54 53 52 51 48 45 43 40 38 37 36 35 35 35 35 34 33 33 32 30 27 25 23 22 22 22 22 22 22 22 21 20 20 20 19 17 16 15 14 14 15 16
69 69 69 68 67 67 67 67 66 65 65 64 62 60 60 61 61 60 59 58 57 56 56 56 56 56 55 54 51 46 41 38 34 31 31 31 33 33 30 31 31 30 28 30 33 31 31 36 35 36 40 42 43 44 45 45 43 42 41 41 40 39 37 36 35 34 34 34 33 32 31 30 29 27 24 22 21 20 20 21 21 22 22 21 21 20 20 20 20 18 17 15 14 14 16 18 20
64 64 63 63 63 62 62 62 62 61 60 58 57 55 57 59 58 56 55 54 53 53 54 54 54 54 53 51 48 44 39 35 32 32 34 34 32 30 28 31 33 30 27 27 31 33 34 37 36 35 36 35 35 34 33 33 34 34 34 35 35 34 34 33 33 32 32 31 30 29 28 27 25 22 21 20 20 20 21 21 22 22 22 22 21 20 19 19 19 18 17 15 14 14 15 16 18
60 59 59 59 59 59 58 58 58 57 56 54 53 52 53 56 55 53 52 51 50 51 52 53 53 53 52 49 46 43 38 35 37 41 43 42 39 34 30 29 33 35 32 29 32 37 38 39 38 37 38 35 32 31 30 30 31 31 31 31 30 31 31 31 31 30 29 27 26 26 25 23 22 20 20 20 20 20 21 21 22 23 23 22 21 19 19 18 18 19 18 15 14 13 12 12 13
57 57 57 56 56 55 54 54 54 54 53 52 51 50 51 55 54 51 50 49 49 50 51 52 52 52 50 47 45 42 38 39 44 47 46 44 43 42 39 35 36 42 39 35 35 39 40 39 38 39 39 36 33 32 32 30 28 28 26 26 26 27 28 28 27 27 25 25 25 24 23 21 21 21 20 20 20 20 21 22 23 23 22 22 21 20 19 18 18 19 20 18 15 12 10 9 10
55 55 54 53 53 53 53 53 53 53 53 51 50 50 51 54 53 51 50 49 49 51 52 52 52 50 48 46 45 42 40 44 48 48 46 45 44 45 43 41 42 46 45 42 42 41 41 40 41 42 39 36 34 33 32 30 28 26 23 22 22 23 24 24 24 24 24 24 23 22 21 21 21 21 21 21 20 20 21 23 22 22 23 22 21 21 19 18 18 20 21 20 17 12 9 8 10
55 54 53 52 52 52 53 53 52 52 53 52 51 50 51 53 53 51 50 49 50 52 53 52 51 50 47 46 45 43 43 48 50 49 48 47 46 46 46 47 49 48 47 49 49 48 47 47 48 47 43 40 38 36 35 33 30 27 23 21 21 21 21 22 22 23 23 22 21 21 21 22 21 21 21 21 20 21 23 24 23 24 24 23 22 20 19 19 20 20 21 21 19 15 11 10 10
55 54 52 52 52 53 53 54 53 53 52 52 52 51 51 52 53 52 50 50 51 52 53 53 52 49 48 48 47 45 46 50 52 52 51 49 49 49 50 52 52 51 49 49 51 53 54 55 53 51 47 44 42 39 37 36 34 30 27 26 24 24 23 24 23 23 22 22 21 22 22 22 22 21 20 20 21 23 25 25 25 25 24 23 22 20 19 20 20 21 21 20 20 18 15 11 7
56 54 54 53 54 55 55 54 55 53 51 52 51 50 50 52 53 52 51 50 51 52 52 52 51 49 49 50 49 47 49 52 54 54 53 52 52 51 52 53 54 56 55 52 52 54 57 60 58 53 50 47 44 41 38 37 38 36 34 32 30 28 27 26 25 23 23 23 24 24 24 23 22 22 21 22 23 25 26 27 27 26 25 24 23 21 21 20 21 21 20 20 19 19 16 10 6
57 56 55 55 57 58 57 56 55 53 50 52 51 49 50 51 52 52 51 50 51 52 52 51 51 50 50 50 49 48 50 54 55 55 55 54 54 54 54 55 56 59 61 61 60 58 57 59 58 54 52 51 48 45 44 42 42 42 40 38 35 32 29 27 26 26 25 25 26 26 26 25 25 24 24 24 25 26 27 27 27 27 26 25 23 23 22 21 21 21 20 19 19 19 16 10 8
60 59 58 59 60 60 59 57 56 53 50 51 51 48 49 51 51 51 50 49 50 51 51 50 51 51 50 49 48 48 51 55 56 56 56 55 54 54 55 56 57 59 63 65 66 64 60 58 57 55 54 54 53 53 51 49 48 47 46 44 41 37 33 30 28 28 27 27 27 27 27 27 27 27 26 26 27 27 27 27 28 28 26 25 24 23 22 21 21 21 20 20 19 18 16 11 11
60 59 60 62 63 60 59 57 55 52 50 51 50 46 49 52 50 50 49 48 48 49 49 50 50 50 49 48 48 48 51 54 55 54 54 54 54 54 54 55 56 59 63 65 67 67 65 62 61 60 58 57 57 56 55 54 53 53 51 49 45 42 40 36 31 30 30 29 29 29 29 29 30 29 28 28 28 28 28 28 29 28 27 26 26 24 23 22 23 23 22 21 19 18 16 13 14
58 58 60 61 62 60 59 58 55 52 51 52 49 46 49 51 48 47 47 46 46 47 47 49 49 49 48 47 47 48 51 52 52 52 52 52 53 53 53 54 55 57 62 65 67 68 68 67 66 65 63 60 56 53 52 52 52 52 51 50 47 44 43 40 36 34 33 32 31 31 30 31 32 31 31 30 30 29 29 29 29 29 28 28 27 26 25 25 25 24 23 20 19 18 17 15 16
58 58 58 58 59 59 58 57 55 53 53 52 49 47 50 51 47 46 46 45 45 45 46 48 49 48 47 45 46 48 49 49 49 51 51 51 51 52 52 52 53 55 59 64 68 69 69 69 69 67 65 61 57 52 50 50 49 49 49 48 47 45 45 43 41 39 37 36 35 34 33 33 34 34 34 34 33 32 31 31 31 30 29 29 28 28 27 27 27 25 22 19 17 17 17 16 18
58 58 57 55 56 56 56 55 54 54 53 51 49 49 51 51 48 47 47 45 44 44 45 47 47 46 44 44 44 45 46 46 48 49 49 48 49 50 49 49 51 53 57 63 68 69 70 70 69 68 65 62 58 54 51 51 51 51 50 48 47 46 46 45 44 43 41 39 38 36 36 35 36 37 37 37 36 35 34 34 33 32 31 30 30 30 29 28 27 25 21 19 17 17 17 17 19
57 56 54 54 55 54 53 52 52 52 51 50 49 48 49 50 48 47 46 45 43 43 44 45 45 43 41 41 41 42 43 45 46 46 46 45 46 46 46 46 48 50 54 60 66 69 69 69 69 69 67 65 62 58 54 53 53 53 53 51 49 49 48 47 46 45 44 43 40 38 37 36 37 38 38 38 37 36 35 35 34 33 32 32 32 31 29 28 26 24 21 19 18 18 17 18 19
55 54 52 53 53 52 52 50 49 49 48 48 48 46 46 47 48 47 45 43 43 41 41 42 41 40 38 37 38 40 41 42 43 43 43 43 42 41 42 44 46 48 50 56 63 68 68 67 68 69 69 67 65 62 58 57 56 56 55 53 52 52 51 50 49 48 46 45 42 40 39 38 38 37 37 37 37 36 36 35 34 34 33 33 32 31 29 27 25 24 22 21 20 19 19 19 20
52 51 50 51 51 51 50 48 47 46 44 46 47 44 41 42 45 46 42 41 41 39 38 38 37 36 35 36 37 38 39 40 40 40 40 39 37 36 39 42 44 46 48 51 58 65 67 67 66 66 67 66 66 64 61 59 59 59 57 56 56 55 54 53 51 49 48 46 44 43 42 40 39 39 38 36 36 35 35 35 34 34 34 33 32 31 29 27 26 25 24 24 22 21 20 20 20
49 48 49 49 49 48 47 45 44 42 41 44 45 40 37 37 41 44 40 38 38 36 35 35 34 34 34 35 36 37 38 38 38 38 36 34 32 34 37 39 41 44 45 47 52 58 63 66 66 65 63 62 61 61 60 59 59 60 60 58 56 54 52 52 52 51 50 48 47 46 46 45 44 44 43 41 39 38 38 37 36 35 35 33 32 31 30 28 27 27 26 25 24 23 22 22 21
47 47 46 46 45 44 43 41 40 38 39 42 41 36 33 32 37 42 38 35 35 34 33 34 33 34 35 35 36 36 37 36 36 35 32 30 30 32 35 37 40 42 44 46 47 51 56 61 63 64 63 62 60 58 58 57 58 58 56 55 53 51 50 49 50 51 50 50 50 50 50 50 49 48 47 45 44 43 42 41 39 38 36 35 33 32 30 28 28 28 27 26 25 24 23 23 22
45 43 42 40 40 39 38 37 35 36 38 39 37 32 29 29 35 40 36 34 33 32 32 33 34 35 35 36 36 36 35 34 33 30 27 25 25 26 30 33 37 41 43 44 45 47 51 54 57 59 60 62 62 61 59 57 57 56 54 53 51 50 49 48 48 48 49 49 50 51 51 50 48 47 46 45 44 43 43 41 40 38 36 34 33 31 29 28 28 27 27 25 25 24 24 24 23
40 38 36 35 35 35 35 34 33 34 36 36 33 29 26 28 34 38 36 33 32 32 32 34 34 35 35 35 35 34 33 31 27 23 19 15 15 20 26 30 34 38 41 43 44 46 47 50 52 53 54 55 58 59 58 57 57 58 57 56 55 54 52 52 51 50 48 47 46 46 46 45 44 43 43 42 42 41 41 39 38 36 35 33 31 30 28 28 27 27 26 25 25 24 24 24 23
36 34 33 33 34 35 34 32 32 33 34 32 30 27 25 29 35 38 36 32 32 32 33 34 35 35 34 34 34 33 30 26 22 20 19 19 20 25 29 31 33 36 40 42 43 45 46 47 49 50 50 51 53 55 57 58 59 60 59 57 55 53 51 50 50 48 46 44 43 43 43 42 41 40 40 39 39 39 39 38 36 34 32 30 29 28 27 27 26 26 26 25 25 24 24 24 24
35 33 32 34 34 33 31 30 31 32 31 30 28 27 27 31 36 38 35 31 31 32 33 34 35 34 34 33 33 32 29 27 26 26 28 32 34 31 32 36 38 36 39 42 43 44 45 45 46 48 47 46 47 50 51 52 54 55 56 54 52 49 47 45 43 43 42 41 40 41 40 39 39 39 39 38 38 37 37 36 34 32 30 28 27 27 26 26 26 26 26 26 25 24 24 25 24
33 32 33 34 31 29 29 30 30 31 30 29 28 28 29 32 36 36 33 31 31 32 33 34 34 33 32 32 33 32 32 33 35 34 34 38 39 36 36 41 42 37 37 39 41 43 44 45 44 42 37 35 38 40 42 45 51 55 55 52 51 50 48 46 43 42 42 41 41 40 39 39 40 40 39 37 36 35 35 34 32 31 29 27 26 26 26 26 27 27 27 26 26 25 25 25 25
32 32 33 31 28 28 30 30 29 30 30 29 29 29 30 32 35 35 32 31 31 32 33 33 33 32 32 33 34 34 34 35 37 36 34 37 39 39 40 41 39 37 35 36 38 40 42 42 39 33 29 30 34 36 39 44 49 52 52 50 50 51 51 49 47 46 44 43 42 40 39 39 39 39 38 36 34 34 33 33 32 31 29 27 26 26 26 26 27 27 27 27 26 26 25 25 25
33 32 31 28 28 29 30 30 29 30 30 30 30 30 31 33 34 34 33 32 32 33 33 33 33 32 34 37 37 37 37 37 37 34 32 34 36 37 38 37 35 34 35 34 34 36 38 36 33 32 31 33 36 39 42 46 45 43 42 41 43 45 45 46 45 45 44 42 41 40 38 38 38 37 36 35 33 32 32 32 31 31 29 26 26 26 26 27 28 28 28 27 27 27 26 27 27
32 31 29 28 29 30 30 29 29 29 29 29 30 31 32 33 33 33 33 32 32 33 34 33 33 35 38 40 40 41 42 40 38 35 32 29 28 30 33 34 35 35 36 36 35 35 36 32 30 34 36 38 41 42 44 47 47 42 38 36 35 34 32 33 33 34 35 35 36 36 35 36 36 36 35 34 32 30 30 30 30 30 28 27 28 28 27 28 28 29 28 28 28 28 28 28 29
31 30 29 29 29 29 29 29 29 29 29 29 30 31 32 32 33 33 33 32 32 33 32 32 35 38 39 39 41 43 43 41 37 35 34 28 24 28 31 33 37 38 39 39 37 36 35 30 28 33 38 42 45 46 47 49 48 44 40 37 35 31 28 28 28 29 30 31 32 33 34 35 36 35 33 31 30 29 29 30 30 31 31 30 30 29 29 28 29 29 29 29 29 29 30 30 30
31 30 30 30 29 29 28 28 29 29 29 29 30 31 32 32 33 33 32 32 32 31 31 33 37 38 37 37 41 44 43 39 35 34 35 30 27 31 33 35 38 41 43 43 40 38 36 34 32 35 41 44 45 47 49 48 46 43 40 39 37 34 33 32 32 32 33 34 34 34 34 35 34 33 32 31 31 32 32 33 33 33 32 31 30 30 29 29 29 29 30 30 30 30 30 31 31
Wind_Direction
250 249 248 250 253 255 255 254 254 255 256 258 260 261 262 262 262 263 265 266 267 268 268 269 269 269 270 271 272 272 271 270 270 270 271 272 272 273 273 273 274 274 275 277 278 279 280 280 280 281 283 283 283 284 285 285 285 286 287 287 289 290 291 292 292 292 293 294 295 296 297 297 298 299 300 301 302 303 304 304 305 306 307 308 309 309 310 311 312 312 312 313 313 313 313 315 315
252 252 251 250 250 252 254 256 257 257 258 258 259 260 260 261 262 263 265 266 267 268 268 269 269 269 269 269 270 270 270 270 270 270 271 271 272 273 273 274 274 274 275 275 276 277 277 278 279 280 281 281 282 282 284 285 285 285 286 287 288 290 291 292 292 293 293 294 295 296 297 298 299 300 300 301 302 303 304 305 306 307 308 308 309 310 310 311 311 312 312 313 312 312 313 315 315
251 252 252 252 252 252 252 253 255 256 257 258 258 259 259 260 262 263 265 267 267 267 268 269 269 269 269 269 269 269 269 270 270 271 271 272 272 273 274 274 274 275 275 274 274 275 276 277 278 278 279 279 280 281 282 283 284 285 285 286 288 290 291 292 292 293 293 294 295 296 297 298 299 300 301 302 302 303 305 306 306 307 308 308 309 310 310 311 311 311 313 313 311 312 313 314 314
251 251 252 252 253 253 253 253 253 254 255 256 257 257 258 260 262 263 264 266 267 267 268 268 268 269 268 268 268 268 269 269 270 271 271 272 273 274 275 275 275 274 274 274 274 274 275 276 277 277 277 278 278 280 281 282 283 284 285 286 288 289 290 291 292 293 293 294 295 297 298 299 299 300 301 302 303 304 305 306 306 307 308 309 309 310 310 310 310 312 313 312 311 312 313 314 314
251 251 252 252 253 253 254 254 254 254 254 255 256 257 258 260 261 263 263 264 265 266 267 267 267 267 267 267 267 268 269 270 270 271 272 272 273 274 275 275 275 274 274 274 273 274 274 275 275 275 276 277 278 279 280 282 283 284 285 286 288 289 289 290 291 292 293 294 296 297 298 299 299 300 301 302 303 304 305 306 306 307 308 309 309 309 310 310 311 313 313 312 312 313 313 313 313
252 252 253 253 253 254 254 255 255 255 255 256 257 258 259 260 261 262 262 263 264 264 265 265 266 266 266 266 267 268 269 270 271 271 272 272 273 273 274 274 274 274 274 274 274 274 274 274 274 275 276 277 278 279 280 281 282 284 285 286 287 288 289 290 291 292 293 294 295 296 297 298 299 300 301 302 303 305 305 306 306 308 309 309 309 309 310 311 313 313 313 313 313 313 312 312 311
252 253 253 254 254 254 255 255 255 256 257 257 258 258 259 260 261 262 262 262 262 263 263 264 265 265 265 266 267 268 269 270 270 271 271 272 272 273 273 274 274 274 274 274 274 273 273 273 274 274 276 277 278 279 280 281 282 284 285 286 287 288 289 290 291 292 293 294 295 296 297 297 298 299 301 302 303 305 305 306 307 308 309 309 308 309 311 313 314 313 312 312 313 313 311 310 310
252 253 253 254 254 254 255 255 256 256 257 258 258 259 259 260 261 261 262 262 262 262 263 264 265 265 265 266 267 268 269 269 270 270 271 271 272 272 273 273 273 274 273 273 273 273 273 273 274 275 276 278 279 280 280 281 283 284 285 286 287 288 289 290 290 291 292 293 294 295 296 297 298 299 301 302 303 305 305 306 307 308 308 309 309 309 311 313 313 312 311 311 312 312 310 310 309
252 253 253 254 254 255 255 255 256 256 257 258 258 258 259 260 261 261 261 261 262 262 263 264 265 265 266 267 268 269 269 270 270 271 271 271 271 272 272 273 273 273 273 273 273 273 274 274 275 276 278 279 280 280 281 282 283 284 285 285 286 287 288 289 290 291 292 293 294 295 296 297 298 300 301 302 303 304 305 306 307 307 308 309 309 309 310 311 311 310 309 310 311 311 310 310 310
254 254 254 255 255 255 256 256 256 257 257 258 258 259 259 260 260 261 261 262 262 263 263 264 265 265 266 267 268 269 270 270 270 271 271 271 271 272 272 272 272 272 272 273 273 274 275 276 277 278 279 280 280 280 281 282 282 283 284 285 286 287 288 289 289 290 291 292 294 295 296 297 298 299 301 302 303 304 304 305 306 306 306 308 308 307 308 309 309 309 309 309 311 312 311 309 310
255 255 255 256 256 256 257 257 257 257 258 259 259 260 260 260 260 261 261 262 262 263 263 264 265 266 267 268 268 269 269 270 270 270 271 271 271 271 271 271 271 271 272 273 274 275 276 277 278 279 279 279 279 280 281 281 282 283 284 285 286 286 287 288 289 290 291 292 294 295 296 297 298 299 301 302 303 303 304 304 304 304 305 306 306 306 306 308 308 308 308 309 311 312 311 308 309
255 256 256 257 257 257 257 257 258 258 258 259 260 261 261 261 261 261 262 263 263 263 264 265 266 266 267 268 268 269 269 269 270 270 270 270 270 270 270 270 271 271 272 273 274 275 276 277 278 278 278 279 279 280 281 281 282 283 284 284 285 286 286 287 288 290 291 293 294 295 296 297 298 299 300 301 302 302 303 302 302 303 304 305 305 305 306 308 308 308 308 310 311 311 310 306 306
256 256 257 257 258 258 258 258 258 258 259 260 261 261 262 262 262 262 262 263 263 264 264 265 266 266 267 267 268 268 268 269 269 270 270 270 270 270 270 270 271 271 272 273 274 275 276 276 277 278 278 279 279 280 281 281 282 283 284 284 285 285 286 287 289 290 292 293 294 295 296 297 298 299 300 301 301 301 301 300 301 302 304 304 305 305 307 308 308 307 309 310 310 309 307 302 301
257 257 258 258 258 258 258 258 259 259 260 261 261 262 262 262 262 263 263 263 263 264 264 265 265 266 266 267 267 268 268 269 269 269 269 269 269 269 270 270 271 272 273 273 274 275 276 276 277 277 278 279 280 280 281 282 282 283 284 284 285 286 287 288 289 291 292 293 293 294 296 297 298 299 299 300 300 300 299 299 300 302 303 304 305 306 307 307 307 308 308 308 308 307 305 300 297
258 259 259 259 259 259 259 259 259 260 260 261 262 262 262 262 263 263 263 263 264 264 265 265 266 266 266 267 267 268 268 268 269 269 269 269 269 269 269 270 271 272 273 274 275 275 276 276 277 277 278 279 279 280 281 282 282 283 284 284 285 286 287 289 290 291 292 293 293 294 296 297 298 298 298 298 298 298 298 298 301 302 303 304 305 306 306 306 307 307 307 306 306 306 303 299 296
259 259 260 260 260 260 260 260 260 261 261 262 262 262 262 262 263 263 264 264 264 265 265 265 266 266 267 267 267 268 268 268 268 268 268 268 268 268 269 270 271 272 273 274 275 276 276 276 277 277 278 279 279 280 281 282 282 283 284 285 286 287 288 289 290 291 291 292 293 294 296 296 297 298 298 297 297 296 297 299 301 302 302 303 304 304 305 306 306 306 305 304 305 305 302 299 298
261 261 261 261 261 261 261 261 261 262 262 262 262 262 263 263 263 263 264 264 264 264 265 265 266 266 267 267 268 268 268 268 268 267 267 267 267 268 269 270 271 272 273 274 275 276 276 277 277 277 278 279 279 280 281 282 282 283 284 285 286 287 288 289 290 290 291 291 293 294 295 296 296 296 296 296 295 295 297 299 300 301 301 302 302 302 304 305 305 305 303 303 303 303 301 299 299
262 262 262 262 262 262 262 263 263 263 263 263 263 263 263 263 263 263 263 264 264 265 265 265 266 266 267 267 267 268 268 268 268 267 267 267 267 268 269 270 271 272 272 274 275 276 276 277 277 278 278 279 280 281 281 282 283 284 285 286 286 286 287 288 289 289 290 292 293 295 296 296 295 295 295 294 294 295 297 298 298 299 299 300 301 302 304 305 305 303 302 301 301 300 299 299 299
263 263 263 262 262 263 263 264 264 264 264 264 264 264 264 264 264 264 264 265 265 265 265 266 266 266 267 267 267 267 267 267 267 267 267 267 268 269 269 270 271 271 272 273 274 275 276 277 277 278 279 280 281 282 283 283 284 284 284 284 284 284 286 287 287 289 291 293 294 296 297 295 293 294 294 294 294 295 296 296 297 297 298 299 301 302 303 304 303 302 302 300 298 296 295 295 297
263 263 262 263 263 263 264 264 264 264 264 264 264 265 265 265 265 265 265 265 265 265 266 266 266 267 267 267 267 267 266 266 266 266 267 268 269 270 270 270 271 272 273 273 274 275 276 277 278 279 281 282 283 284 284 284 283 282 281 281 282 283 285 286 288 290 293 294 295 296 294 292 292 294 294 293 293 294 294 295 295 297 298 300 301 302 302 302 301 300 299 297 294 291 290 290 292
263 263 263 263 263 264 264 264 264 264 264 265 265 265 264 264 264 264 264 264 265 265 266 266 266 267 267 267 266 266 265 265 265 266 267 268 269 270 270 271 272 272 273 274 275 276 276 278 279 281 283 284 283 283 282 281 280 279 279 280 281 283 285 288 290 293 294 294 294 293 291 291 292 292 291 292 292 292 293 294 295 297 298 300 300 301 300 299 298 297 296 294 291 289 288 288 289
263 263 263 264 264 264 264 264 265 265 265 265 264 264 264 264 264 263 263 264 264 265 265 266 266 266 267 266 266 266 265 265 265 265 266 267 269 270 271 272 272 273 274 275 276 276 278 279 280 281 282 283 282 281 280 279 279 279 279 279 281 283 286 290 293 295 294 293 291 290 290 290 291 290 289 290 291 292 293 294 296 297 299 300 300 300 299 299 297 295 293 291 289 288 287 287 288
264 264 264 264 264 264 264 265 265 265 265 264 264 264 263 263 263 263 264 264 264 264 265 266 266 267 266 266 266 265 265 264 265 265 267 268 270 271 272 273 273 274 275 275 276 276 277 278 277 277 278 280 279 278 278 279 280 280 279 279 281 285 290 293 295 294 293 291 290 289 289 289 289 288 289 290 290 291 293 294 296 298 300 301 301 300 300 299 296 293 291 289 288 287 287 287 288
264 264 264 265 265 265 265 265 265 264 264 264 264 264 263 263 264 264 264 264 264 264 265 266 266 266 266 266 265 264 264 264 265 266 268 270 271 272 273 273 273 274 275 276 275 276 276 272 270 272 272 273 274 275 280 284 284 282 279 280 284 289 292 293 292 291 290 289 289 288 288 287 287 288 288 289 290 291 293 295 297 299 301 302 303 303 302 300 296 294 291 290 288 287 287 287 287
264 264 265 265 265 265 265 264 264 264 264 264 264 264 264 264 264 264 264 264 265 265 265 265 265 265 265 265 264 263 263 264 266 268 270 271 273 273 273 274 275 277 277 277 276 276 275 271 270 273 272 270 271 276 283 286 285 281 281 284 288 290 292 291 290 288 288 287 287 286 286 286 286 287 288 289 290 292 294 296 298 300 302 305 307 308 306 302 298 296 292 289 287 286 286 285 284
264 265 265 265 265 265 265 265 264 264 264 264 264 264 264 264 265 265 265 265 265 265 265 265 264 264 264 263 263 263 263 265 268 269 271 272 272 273 274 277 279 280 280 278 276 275 274 272 273 274 272 270 272 277 282 283 282 283 285 287 289 291 291 290 289 287 286 285 285 285 284 285 286 287 288 289 291 293 295 296 298 301 305 309 313 312 307 302 299 296 293 290 288 286 284 283 283
265 265 265 265 266 266 266 265 265 265 265 265 264 264 264 264 264 264 264 264 264 264 264 264 264 263 262 262 261 262 264 266 267 269 270 271 272 275 278 280 281 281 278 275 274 275 275 274 273 271 270 269 271 275 278 280 281 283 285 287 288 290 290 289 288 286 284 284 283 283 284 285 286 286 288 289 291 293 295 296 300 304 309 315 317 314 307 303 300 299 298 294 290 286 284 283 285
265 266 266 266 266 266 266 266 266 265 265 264 264 264 264 263 263 263 263 263 263 263 263 262 262 261 261 260 260 262 264 264 265 267 269 270 271 273 274 274 276 275 270 271 273 277 282 279 272 269 268 268 269 271 274 276 279 281 283 285 286 287 287 286 284 283 282 282 282 282 283 284 285 286 288 290 291 292 294 298 303 308 313 318 319 315 310 308 306 306 303 298 292 290 287 283 282
265 266 266 266 266 266 265 265 265 265 264 263 263 263 262 261 260 261 261 261 261 260 260 260 259 259 259 259 260 261 261 261 263 265 266 268 268 267 262 256 260 262 260 266 272 277 285 283 275 269 267 267 268 269 271 274 276 279 281 283 284 284 283 282 281 280 280 280 281 281 283 284 285 287 289 289 291 293 297 301 304 308 314 319 319 320 321 319 316 313 310 307 301 294 287 280 276
265 265 265 265 265 264 264 264 264 262 262 261 261 261 260 259 258 259 259 258 258 258 257 258 257 257 257 257 258 259 258 258 260 262 262 262 263 264 259 251 253 258 259 263 271 275 273 273 271 269 270 271 270 272 274 276 278 280 281 282 282 281 280 279 278 278 278 279 280 281 282 283 285 287 287 289 293 296 298 300 303 308 315 317 317 320 325 327 324 321 320 317 308 296 290 286 283
263 263 263 263 263 262 262 262 262 261 260 260 259 259 259 258 257 257 256 256 256 256 256 256 255 255 255 256 257 257 255 255 253 250 247 242 243 249 249 251 255 255 253 254 264 266 258 258 263 267 272 275 273 276 281 283 283 283 282 282 281 280 278 277 276 276 277 278 279 280 280 282 284 284 286 292 295 295 296 299 304 310 315 315 316 318 324 329 331 331 330 324 316 307 301 298 296
262 262 261 261 261 261 261 261 261 260 259 259 258 257 257 258 256 255 254 254 254 255 254 254 254 254 255 255 256 255 253 251 247 240 237 231 227 225 220 230 246 246 239 238 248 254 253 255 258 262 268 271 274 278 282 283 284 283 281 280 278 276 275 274 274 275 276 276 277 277 279 280 280 283 289 293 292 292 295 301 307 311 313 315 317 320 324 330 336 341 341 336 329 322 317 314 310
260 260 260 260 260 260 260 260 260 260 259 258 256 255 255 257 256 254 253 252 253 253 253 253 253 253 253 254 253 252 249 247 245 241 239 236 232 229 218 213 229 237 233 230 236 243 249 251 252 257 264 268 271 275 277 278 279 279 278 276 275 274 273 273 273 273 273 273 273 275 277 277 279 285 290 289 288 291 296 303 307 310 312 314 316 319 324 331 340 346 349 347 343 336 334 329 320
259 259 259 260 259 259 259 258 258 259 258 257 256 254 253 255 255 254 253 252 251 252 252 252 252 252 252 252 251 249 246 244 244 242 240 237 234 234 228 218 223 233 232 231 232 236 242 245 248 255 259 261 263 267 272 274 274 275 276 276 276 275 273 272 271 271 271 271 272 274 276 277 281 287 288 285 285 290 296 302 305 309 312 313 314 317 324 331 337 342 345 348 348 348 344 334 326
259 259 259 260 260 259 258 257 257 257 257 256 255 253 252 254 255 255 254 252 252 252 252 252 253 253 253 252 251 248 246 245 244 242 239 236 233 233 233 227 227 231 231 231 234 236 239 243 249 254 254 254 256 260 265 267 267 270 275 277 276 276 276 275 273 271 272 271 272 276 278 279 283 286 284 282 284 290 295 299 302 308 312 312 312 316 321 325 329 333 338 341 343 344 338 330 330
260 260 260 260 260 260 258 257 256 255 256 256 255 254 253 254 255 254 254 253 253 253 253 254 254 254 253 252 250 248 246 246 246 244 241 238 235 233 233 233 232 232 230 229 232 235 240 244 249 252 251 251 253 254 259 261 260 264 271 274 274 277 280 281 277 272 271 271 274 278 278 279 282 281 279 281 285 289 293 296 300 306 311 312 313 314 318 320 323 329 333 335 335 334 332 325 325
261 261 261 261 261 260 258 257 256 254 255 255 254 254 253 254 254 254 253 253 254 254 254 255 255 255 254 252 251 249 247 248 247 245 243 240 237 235 234 234 234 235 234 231 232 236 241 244 246 247 246 248 250 252 256 258 258 261 267 271 273 276 279 279 275 271 270 272 275 277 276 278 278 276 277 282 285 288 291 296 300 305 310 313 314 315 318 320 322 327 331 332 331 329 327 315 299
262 261 261 261 260 259 257 256 256 255 254 255 254 254 254 254 254 254 253 253 254 256 256 257 257 256 254 253 252 250 248 248 247 246 245 242 240 238 236 236 235 237 238 238 238 239 240 241 243 244 244 245 248 251 255 258 259 261 264 270 274 276 276 274 272 270 270 273 275 275 275 278 278 277 279 282 284 286 290 294 300 304 307 311 315 317 319 321 323 327 329 330 329 326 322 304 282
262 261 261 260 258 257 257 255 255 255 254 255 255 254 255 255 255 255 254 254 255 256 258 258 257 256 255 254 252 250 249 248 248 247 246 245 243 240 238 237 236 236 238 240 241 240 239 238 240 242 242 244 248 253 255 257 259 261 265 269 272 272 271 271 271 270 271 274 275 273 274 278 280 280 281 282 282 284 288 292 297 301 303 307 312 315 318 321 323 325 327 327 326 322 318 300 280
261 260 259 258 257 256 256 256 255 255 255 255 255 254 255 256 255 256 255 255 255 256 258 257 257 256 255 254 252 249 248 248 248 248 247 246 245 242 240 237 235 235 236 238 240 240 239 238 240 242 244 246 251 254 255 256 257 260 263 266 267 268 268 268 269 270 271 272 272 271 272 277 280 282 282 281 281 282 286 290 294 297 298 302 306 309 312 316 320 322 325 326 323 317 312 299 284
260 259 258 257 257 256 256 256 256 255 255 256 256 254 256 257 256 256 255 254 254 255 256 256 256 255 254 253 251 248 246 247 247 247 246 245 243 242 239 236 234 233 234 236 238 239 239 241 243 245 247 249 252 254 255 256 257 258 260 261 263 264 265 266 269 272 272 270 270 270 273 276 278 280 280 280 280 282 286 289 292 294 295 297 300 302 305 310 314 318 323 325 321 315 309 298 290
258 257 257 257 258 257 256 256 256 255 255 256 256 255 255 257 256 256 254 252 253 253 254 255 254 254 253 251 248 246 246 246 245 245 244 243 242 241 239 236 234 232 232 234 236 238 240 242 244 245 246 248 251 254 255 256 256 257 258 259 260 261 263 265 269 272 272 270 271 273 275 277 278 278 279 279 279 281 285 288 289 291 293 294 296 298 300 304 309 315 320 323 319 313 307 298 296
257 256 256 257 258 258 257 256 256 256 255 255 255 254 255 256 255 255 254 252 252 251 252 253 253 252 251 248 246 244 244 244 243 243 244 243 242 241 240 238 234 231 230 231 233 237 239 240 242 243 245 247 249 253 256 257 258 258 259 261 261 261 262 265 268 270 271 272 273 275 278 279 279 280 279 279 279 281 284 286 288 289 290 291 294 296 298 302 307 312 316 317 315 311 305 299 301
256 255 255 256 256 257 257 256 256 256 256 255 255 254 255 256 255 253 253 252 251 250 250 250 250 249 247 245 243 242 242 241 242 242 243 242 242 241 241 239 235 230 228 229 231 234 237 239 240 242 244 246 248 251 255 257 258 259 261 262 263 264 266 268 270 272 274 274 275 277 279 280 281 281 280 279 279 281 284 286 287 288 289 291 293 295 298 302 306 309 311 311 310 307 302 299 301
253 253 253 253 254 255 256 256 256 256 258 257 256 254 254 256 255 253 252 252 250 248 247 247 247 246 243 241 239 239 240 241 241 241 241 241 242 242 241 239 236 232 228 228 230 232 235 238 241 243 245 247 249 252 254 257 258 259 261 264 267 269 270 272 273 275 275 275 276 278 279 280 281 281 281 280 280 281 283 285 286 288 289 291 293 296 299 301 303 305 306 306 305 303 299 296 298
251 251 251 251 252 253 254 256 256 257 259 259 256 253 252 254 255 253 250 249 248 244 242 242 242 241 239 236 236 236 238 239 239 239 240 241 242 243 242 240 238 234 230 227 228 231 234 236 239 242 245 248 251 253 255 257 259 261 263 266 269 271 272 273 274 274 274 274 276 277 278 279 279 280 281 281 281 281 283 285 287 288 290 291 294 296 298 299 299 300 302 303 303 301 297 294 294
249 249 249 250 251 253 254 256 257 258 258 258 256 252 250 251 253 253 247 244 243 240 237 236 236 236 234 233 233 234 235 236 237 238 239 239 240 240 241 241 239 236 233 230 228 230 234 237 239 241 243 247 251 254 256 259 261 263 265 267 269 272 274 276 276 276 275 276 276 277 278 278 278 279 280 280 280 281 282 284 286 287 289 290 292 294 295 295 295 296 299 301 301 300 295 291 292
248 248 249 250 252 254 255 256 256 256 255 255 254 252 248 246 248 250 245 239 238 235 233 231 230 231 230 230 230 231 232 233 234 236 236 236 237 238 240 241 239 236 234 232 230 230 233 237 240 242 243 245 248 251 254 257 260 262 264 267 270 273 275 276 277 278 278 279 279 279 279 279 279 278 279 278 278 279 280 282 283 284 286 288 289 290 291 291 292 293 296 299 300 298 294 291 290
247 248 249 251 253 254 254 254 253 252 251 253 253 251 246 240 242 245 242 236 234 231 229 228 227 227 227 227 228 228 229 231 232 232 233 234 237 242 244 244 242 239 236 235 234 233 233 236 240 243 245 246 248 251 253 256 258 260 262 264 266 268 269 269 269 272 274 276 277 278 279 279 279 278 278 278 278 278 279 280 281 281 282 284 285 286 287 288 289 291 294 296 297 296 294 291 289
247 248 249 250 251 250 250 248 247 248 249 250 251 249 242 236 238 241 239 233 230 227 226 226 226 226 226 226 226 226 226 227 228 227 223 226 244 255 254 251 248 245 241 238 236 236 236 237 239 242 246 248 250 253 256 259 261 262 264 265 265 266 267 265 264 266 269 272 274 275 276 276 277 277 276 276 276 276 277 278 277 277 278 280 281 282 284 286 287 289 291 292 294 294 292 289 286
245 244 244 244 244 244 244 244 244 245 246 247 246 243 235 231 234 237 235 230 228 226 225 225 225 224 223 223 224 224 222 221 217 211 202 198 218 238 248 253 252 248 244 240 238 237 237 239 240 242 245 248 251 254 257 260 262 264 266 268 268 269 269 268 267 268 270 271 272 272 273 274 273 272 271 271 273 273 274 273 273 273 275 276 278 280 282 284 285 286 288 288 289 290 288 284 283
240 239 239 239 240 241 241 241 241 242 242 241 239 234 228 228 232 235 233 228 227 227 225 225 224 222 220 219 219 217 213 209 203 200 199 197 202 214 232 246 249 247 244 241 239 238 238 239 240 242 245 250 257 260 260 260 260 262 264 266 268 269 270 270 269 269 270 270 269 269 270 269 268 267 268 268 269 269 269 269 269 270 272 274 277 279 280 281 283 284 284 283 283 284 282 280 279
237 237 237 238 238 238 239 238 239 240 239 236 233 229 225 227 231 233 231 226 226 226 224 223 222 220 218 215 213 210 206 204 200 196 195 195 195 201 217 233 241 243 243 241 240 240 240 240 241 243 247 254 264 267 264 261 259 261 263 265 268 270 271 272 272 271 270 269 269 269 268 266 266 267 267 267 267 267 267 268 268 269 271 273 275 276 277 279 281 281 280 278 277 278 277 275 274
235 235 236 236 234 234 234 234 235 236 236 234 231 226 223 227 230 230 228 223 223 223 222 221 218 215 212 209 207 203 201 201 198 196 196 195 197 203 212 223 233 240 241 239 239 241 242 242 242 242 240 244 252 254 255 257 258 260 262 263 267 269 270 272 273 272 271 271 271 270 269 268 268 268 268 267 267 267 267 268 268 269 270 271 272 273 274 276 278 277 275 274 273 273 273 272 272
233 233 234 233 230 230 231 231 231 232 233 232 231 227 224 227 229 228 225 220 219 219 218 217 214 209 206 203 199 195 194 193 191 195 200 201 202 208 215 222 232 239 240 239 241 244 244 243 240 235 229 230 237 241 247 253 255 258 261 263 266 269 270 270 270 270 271 271 271 270 269 268 267 268 268 267 267 267 267 268 268 270 270 270 269 270 272 273 274 273 271 270 269 270 271 271 272
231 232 232 230 229 229 229 230 230 229 230 231 230 228 226 226 227 226 223 219 216 216 215 212 208 204 202 199 194 189 186 183 183 189 195 200 209 219 225 231 237 240 241 242 245 246 244 241 235 232 227 225 230 237 245 250 252 255 261 265 269 270 268 266 266 267 268 268 268 267 265 264 264 266 267 268 268 267 267 267 267 268 269 268 269 270 271 270 269 269 268 268 269 270 272 273 273
229 229 228 228 227 228 229 229 229 229 229 229 230 230 228 226 226 225 222 218 215 214 211 206 203 202 201 198 192 184 179 178 182 187 188 194 212 226 233 238 241 242 241 243 246 245 244 242 237 233 232 231 233 238 244 249 253 258 262 264 264 264 264 265 265 266 267 266 266 265 263 263 264 265 266 266 266 264 264 264 265 266 268 268 269 270 269 267 266 266 267 269 271 273 274 275 276
226 225 225 225 225 226 228 228 229 228 228 229 230 230 229 226 224 222 219 216 214 212 206 201 201 201 197 193 186 179 176 180 184 186 188 194 208 221 231 239 242 243 242 242 244 244 245 246 241 235 235 236 237 240 245 251 256 261 262 261 260 261 263 265 265 266 268 270 270 269 266 264 262 262 262 262 262 260 261 262 264 266 267 268 269 269 267 266 265 266 268 270 273 274 276 277 279